SCP
0 0 0 0 0 0 0 0 0 0 0 0 0 0 0 0 0 0 0 0 0 0 0 0 0 0 0 0 0 0 0 0 0 0 0 0 0 0 0 0 0 0 0 0 0 0 0 0 0
0 0 0 0 0 0 0 0 0 0 0 0 0 0 0 0 0 0 0 0 0 0 0 0 0 0 0 0 0 0 0 0 0 0 0 0 0 0 0 0 0 0 0 0 0 0 0 0 0
0 0 0 0 0 0 0 0 0 0 0 0 0 0 0 0 0 0 0 0 0 0 0 0 0 0 0 0 0 0 0 0 0 0 0 0 0 0 0 0 0 0 0 0 0 0 0 0 0
0 0 0 0 0 0 0 0 0 0 0 0 0 0 0 0 0 0 0 0 0 0 0 0 0 0 0 0 0 0 0 0 0 0 0 0 0 0 0 0 0 0 0 0 0 0 0 0 0
0 0 0 0 0 0 0 0 0 0 0 0 0 0 0 0 0 0 0 0 0 0 0 0 0 0 0 0 0 0 0 0 0 0 0 0 0 0 0 0 0 0 0 0 0 0 0 0 0
0 0 0 0 0 0 0 0 0 0 0 0 0 0 0 0 0 0 0 0 0 0 0 0 0 0 0 0 0 0 0 0 0 0 0 0 0 0 0 0 0 0 0 0 0 0 0 0 0
0 0 0 0 0 0 0 0 0 0 0 0 0 0 0 0 0 0 0 0 0 0 0 0 0 0 0 0 1 1 1 1 1 1 1 0 0 0 0 0 0 0 0 0 0 0 0 0 1
0 0 0 0 0 0 0 0 0 0 0 0 0 0 0 0 0 0 0 0 0 1 1 1 0 1 1 1 1 1 1 1 1 1 1 1 0 0 1 1 1 1 1 1 1 1 1 1 1
0 0 0 0 0 0 0 0 0 0 0 0 0 0 0 0 0 0 0 0 0 1 1 1 1 1 1 1 1 1 1 1 1 1 1 1 1 1 1 1 1 1 1 1 1 1 1 1 1
0 0 0 0 0 0 0 0 0 0 0 1 1 1 1 1 0 0 0 0 0 0 1 1 1 2 1 1 2 2 2 2 1 1 1 1 1 1 1 1 1 1 1 1 1 1 1 1 1
0 0 0 0 0 0 0 0 0 0 0 1 1 1 1 1 1 1 1 1 1 0 1 1 2 2 2 2 2 2 2 2 2 2 2 2 2 1 1 1 2 2 2 2 2 2 1 1 1
0 0 0 0 0 0 0 0 0 0 0 1 1 1 1 1 1 1 1 1 1 1 1 1 2 3 3 2 3 3 2 3 3 3 3 3 2 2 2 2 2 2 2 2 2 2 2 1 1
0 0 0 0 0 0 0 0 0 0 0 1 1 1 1 1 1 1 1 2 2 2 2 2 4 4 4 3 3 3 3 3 3 3 3 3 3 2 2 2 2 2 2 2 2 2 2 1 1
0 0 0 0 0 0 0 0 0 0 0 0 1 1 1 1 1 2 2 3 3 4 4 4 5 6 5 4 4 3 3 3 3 3 3 3 3 2 2 2 2 2 2 2 2 1 1 1 1
0 0 0 0 0 0 0 0 0 0 0 0 0 1 1 1 2 2 3 4 5 6 6 6 6 5 5 5 4 4 3 3 3 3 2 2 2 2 2 2 1 1 1 1 1 1 1 1 1
0 0 0 0 0 0 0 0 0 0 0 0 0 0 1 2 2 3 4 5 7 8 8 6 5 5 6 5 4 3 3 2 2 2 2 2 2 2 2 1 1 1 1 1 1 1 1 1 1
0 0 0 0 0 0 0 0 0 0 0 0 0 1 1 2 3 5 6 8 9 9 8 7 5 5 5 5 4 2 2 2 2 2 2 2 1 1 1 1 1 1 1 1 1 1 1 1 1
0 0 0 0 0 0 0 0 0 0 0 0 0 1 2 3 4 6 8 9 9 9 7 6 5 5 4 4 3 2 2 1 1 1 1 1 1 1 1 1 1 1 1 1 1 1 1 1 1
0 0 0 0 0 0 0 0 0 0 0 0 1 1 2 3 5 7 8 8 7 7 6 5 4 4 3 3 2 2 1 1 1 1 1 1 1 1 1 0 0 0 0 0 0 0 0 0 0
0 0 0 0 0 0 0 0 0 0 0 1 1 1 2 3 4 5 5 5 4 4 4 3 3 3 2 2 2 2 1 1 1 1 1 1 1 0 0 0 0 0 0 0 0 0 0 0 0
0 0 0 0 0 0 0 0 0 0 1 1 1 1 1 2 2 2 2 2 2 2 2 3 3 3 2 2 1 1 1 1 1 1 1 1 1 1 0 0 0 0 0 0 0 0 0 0 0
0 0 0 0 0 0 0 0 0 1 1 1 1 1 1 1 1 1 1 1 1 1 2 2 3 3 2 2 1 1 1 1 1 1 1 1 1 1 0 0 0 0 0 0 0 0 0 0 0
0 0 0 0 0 0 0 0 0 1 1 2 1 1 1 1 0 0 0 0 1 1 1 2 3 3 2 2 2 2 1 1 1 1 2 2 1 1 1 1 0 0 0 0 0 0 0 0 0
0 0 0 0 0 0 0 0 0 1 1 1 1 1 1 0 0 0 0 0 0 1 1 1 2 2 2 2 2 2 2 2 2 2 2 2 2 1 1 1 1 0 0 0 0 0 0 0 0
0 0 0 0 0 0 0 0 0 1 1 1 1 0 0 0 0 0 0 0 0 0 0 0 1 1 1 1 2 2 2 2 2 2 2 2 2 2 2 1 1 1 0 0 0 0 0 0 0
0 0 0 0 0 0 0 0 1 1 1 0 0 0 0 0 0 0 0 0 0 0 0 0 0 0 0 1 1 1 2 2 2 3 3 3 3 2 2 2 1 1 0 0 0 0 0 0 0
0 0 0 0 0 0 0 1 1 1 0 0 0 0 0 0 0 0 0 0 0 0 0 0 0 0 0 0 0 0 1 1 2 2 3 4 3 3 3 2 1 1 1 0 0 0 0 0 0
0 0 0 0 0 0 0 1 1 1 0 0 0 0 0 0 0 0 0 0 0 0 0 0 0 0 0 0 0 0 0 0 1 1 2 3 3 3 3 3 2 1 1 1 0 0 0 0 0
0 0 0 0 0 0 0 0 1 1 0 0 0 0 0 0 0 0 0 0 0 0 0 0 0 0 0 0 0 0 0 0 0 0 1 1 2 2 3 3 2 2 1 1 1 0 0 0 0
0 0 0 0 0 0 0 0 1 1 0 0 0 0 0 0 0 0 0 0 0 0 0 0 0 0 0 0 0 0 0 0 0 0 0 0 1 1 2 2 2 2 1 1 1 1 0 0 0
Wind_Speed
9 11 10 8 7 7 7 8 12 13 12 10 8 7 18 17 12 10 14 21 24 20 18 18 15 14 13 14 14 13 13 13 12 11 10 10 9 8 7 7 7 8 8 9 8 8 8 8 8
11 14 11 6 4 6 4 9 10 10 7 5 6 8 18 14 12 13 16 21 23 20 17 16 17 14 14 13 14 14 14 13 12 11 10 10 10 9 8 7 7 7 7 7 7 7 7 7 6
13 16 7 7 5 2 6 6 7 7 5 5 10 14 13 10 10 11 16 20 21 18 16 18 18 16 14 13 13 13 13 13 12 11 10 10 10 9 8 8 7 7 7 6 6 6 6 6 6
10 8 8 10 8 8 7 3 5 7 3 4 13 12 10 7 8 15 17 19 20 18 17 18 17 16 14 14 13 12 12 12 12 11 10 10 9 9 8 8 7 7 7 6 6 6 6 6 6
11 8 12 13 4 5 5 3 3 7 4 9 18 15 11 9 14 16 15 19 18 18 17 17 17 15 14 14 13 13 12 12 11 11 11 10 9 9 8 8 8 8 9 8 8 8 8 8 8
7 9 13 10 2 6 3 4 4 4 5 9 18 16 10 11 13 15 15 16 17 18 18 16 17 16 14 13 13 13 13 12 12 12 11 11 10 10 9 9 9 9 9 9 9 9 9 9 10
10 13 17 19 3 6 3 6 8 2 8 6 8 14 13 14 14 14 13 13 16 19 19 15 15 14 15 15 14 14 14 13 13 13 13 12 12 11 11 11 11 11 10 10 10 10 9 9 9
12 12 20 20 8 4 5 10 5 14 11 5 4 9 15 16 15 14 13 11 12 18 19 15 15 14 13 12 14 14 13 13 13 13 13 13 12 13 13 13 13 14 13 13 13 13 12 11 11
14 13 17 17 8 2 5 4 2 1 11 11 5 14 20 20 17 15 13 11 9 14 17 16 16 14 13 13 15 15 14 14 13 12 15 13 10 12 13 17 17 18 17 16 15 15 14 13 14
11 13 19 11 7 3 1 2 3 6 9 12 12 15 20 19 17 17 15 14 12 10 14 11 15 15 14 12 12 10 11 11 12 10 12 11 9 8 11 12 20 20 19 18 17 16 14 12 8
14 18 19 15 9 6 9 9 7 9 7 14 16 14 13 18 17 16 16 15 15 12 9 11 12 13 11 7 10 8 7 8 12 12 9 8 7 6 7 3 7 10 13 10 10 11 8 8 7
17 16 17 15 12 11 10 13 13 11 1 15 20 20 19 18 17 17 17 17 16 14 11 11 8 8 4 3 4 5 4 4 5 9 10 6 4 4 3 2 1 3 4 6 5 5 8 9 9
14 14 17 18 15 13 14 14 15 15 1 10 16 21 20 18 17 15 14 14 16 14 12 10 8 7 5 1 1 1 1 1 2 3 4 4 3 3 2 2 2 2 2 3 4 5 6 6 6
15 17 16 15 15 16 17 15 15 17 11 12 11 11 14 15 16 12 13 13 14 13 11 9 9 8 6 4 2 1 2 1 2 2 2 1 1 2 2 2 2 3 3 3 3 4 4 4 3
14 16 18 19 20 20 18 16 15 17 15 9 10 9 9 12 12 12 13 13 14 12 11 10 9 10 8 5 4 3 4 3 2 1 1 1 2 3 3 3 3 3 3 4 4 5 4 5 5
16 17 19 22 22 20 13 13 15 15 13 8 8 9 8 8 11 13 13 12 14 13 11 11 10 11 9 5 3 3 3 1 1 2 2 1 1 3 3 3 3 3 3 4 4 5 5 5 5
17 18 20 21 21 15 10 12 14 9 7 4 5 6 7 8 10 12 13 12 12 11 10 9 6 8 8 7 5 4 2 1 2 2 3 2 1 2 2 3 3 4 4 4 6 5 5 5 6
14 13 13 15 6 5 8 12 9 7 9 9 5 5 6 9 10 10 11 11 12 12 9 8 6 5 5 5 4 2 2 2 3 2 4 2 1 2 2 3 1 2 2 3 3 3 3 4 5
11 14 14 9 4 1 7 12 9 3 6 9 7 6 8 9 10 2 4 7 10 10 8 6 6 6 3 2 2 2 1 0 0 2 5 2 1 1 1 3 3 3 4 4 4 4 5 5 5
10 11 11 9 8 7 9 13 12 8 8 5 5 4 3 2 3 11 10 7 7 8 7 5 6 7 4 4 3 2 1 1 1 1 3 3 2 0 3 2 3 4 4 5 5 5 5 5 5
10 10 11 11 9 10 14 16 15 8 5 10 13 13 12 15 17 21 18 12 7 5 4 5 6 6 4 6 3 3 3 2 2 2 3 3 2 1 1 2 3 3 4 4 4 4 5 5 5
9 7 10 12 12 12 13 12 5 5 12 16 18 20 18 18 20 18 14 14 15 13 10 6 4 4 3 3 2 2 2 2 1 2 2 3 2 3 3 2 3 3 4 5 6 4 3 5 5
10 11 13 14 13 13 12 11 4 11 14 16 17 16 15 17 17 16 12 12 13 16 17 16 14 9 6 4 5 4 4 4 2 2 2 3 4 5 5 4 3 3 4 5 5 5 5 4 5
9 12 15 12 5 8 11 11 2 7 11 14 15 16 16 15 15 13 11 11 12 14 14 14 16 16 16 15 12 8 7 7 8 6 4 3 3 4 7 6 4 3 4 4 4 5 7 6 6
12 11 9 6 1 7 12 11 2 9 14 15 15 15 15 14 13 13 12 12 12 14 13 12 13 12 13 14 15 14 11 8 8 8 7 6 4 3 4 4 2 2 4 4 5 6 6 6 6
10 10 9 13 12 5 13 5 8 13 13 13 13 13 13 12 12 12 11 11 11 11 11 11 11 9 10 10 10 10 13 10 8 9 8 6 3 2 1 3 3 4 5 6 5 5 6 6 5
7 10 15 14 14 13 1 9 9 10 9 8 9 10 10 10 9 9 8 8 8 8 8 8 8 8 9 9 9 7 8 8 9 10 9 8 7 6 4 2 3 4 5 6 6 6 6 6 6
4 8 7 8 10 14 14 4 4 8 6 3 6 8 8 8 8 7 7 6 6 5 4 5 6 7 8 8 8 8 7 7 7 7 8 9 9 9 8 7 5 5 5 6 6 6 6 5 5
7 9 8 7 9 11 15 7 7 8 5 6 6 7 8 9 10 9 8 8 8 8 8 6 6 6 7 7 7 8 9 9 8 6 6 7 7 9 9 8 7 7 7 7 6 6 7 6 5
12 8 8 7 9 10 12 6 8 8 6 6 7 8 9 10 10 11 10 9 8 8 7 7 6 6 6 6 6 7 7 8 8 8 8 8 8 7 9 9 8 9 9 8 7 7 6 5 5
Wind_Direction
234 234 224 243 258 264 276 63 59 55 58 63 47 35 60 53 62 80 108 108 112 121 129 129 126 126 126 132 139 141 141 142 142 142 138 131 126 124 119 114 110 113 115 112 109 106 106 107 111
264 250 232 242 267 314 312 82 73 66 60 84 82 72 79 70 79 103 109 113 119 127 138 136 134 135 134 136 141 146 148 149 149 149 146 144 144 144 139 131 127 125 124 124 124 122 121 119 120
260 261 256 232 206 214 279 90 93 96 86 86 83 58 62 84 104 115 119 127 126 132 138 136 143 143 143 142 144 150 154 156 157 156 155 158 160 161 159 155 152 150 147 146 145 144 141 140 140
263 245 230 247 227 192 227 100 102 90 74 108 102 85 75 68 111 123 135 135 125 133 136 143 148 149 151 151 153 157 161 164 165 166 168 172 173 175 175 175 176 175 174 173 174 175 171 169 171
252 254 254 261 266 217 199 143 130 126 150 93 92 95 94 91 104 126 151 133 133 141 136 146 153 155 159 162 164 167 171 173 175 177 181 185 187 191 194 194 195 196 196 196 197 199 197 195 196
269 265 273 289 65 295 235 147 57 91 83 98 114 111 108 121 127 148 152 140 146 139 135 145 156 162 167 171 175 178 181 183 185 188 193 197 199 204 211 213 214 213 211 209 209 211 214 211 210
269 287 292 290 217 224 238 139 138 160 58 28 96 118 135 143 146 152 150 154 148 139 136 151 161 169 176 182 185 187 190 192 195 200 204 208 211 214 220 225 226 224 222 220 219 221 224 224 223
271 285 287 287 283 172 7 340 79 104 107 219 189 134 143 143 153 147 156 156 146 138 141 158 165 168 177 186 193 195 198 201 205 210 214 217 221 225 228 229 226 228 225 223 222 223 224 225 227
266 268 272 288 328 103 133 215 321 91 174 179 111 137 144 149 152 153 160 152 150 145 147 166 167 167 181 186 186 193 201 206 209 215 220 223 227 226 222 224 224 221 223 222 222 223 225 228 231
247 264 270 306 350 335 273 243 192 215 211 123 98 116 136 153 156 165 164 159 166 169 160 168 167 167 187 193 167 185 197 199 206 214 208 209 222 240 249 218 215 219 221 223 223 225 228 230 237
251 261 281 303 310 311 309 292 240 247 239 137 132 131 156 161 168 173 169 169 170 178 178 166 170 167 187 178 159 185 197 193 197 216 218 203 210 230 256 256 204 215 224 227 226 226 230 231 230
257 266 286 294 293 295 291 293 292 279 348 123 142 156 183 174 179 180 175 176 166 173 182 175 165 149 180 175 172 176 193 186 183 200 218 209 206 228 260 294 233 198 217 221 228 220 222 231 235
268 271 274 280 283 278 272 269 277 280 121 127 151 170 178 179 188 186 174 165 156 167 177 174 146 130 135 115 310 233 228 244 235 185 194 187 197 218 252 269 270 260 247 219 216 223 225 229 240
281 282 283 281 280 276 270 266 265 266 249 162 170 185 185 188 193 180 165 158 156 161 169 154 140 137 143 157 189 321 313 322 312 33 11 75 165 216 238 250 249 248 249 251 241 245 241 243 251
274 274 274 269 262 254 252 256 259 262 258 194 183 202 207 191 187 171 173 165 163 161 157 142 156 154 161 177 192 205 230 217 186 181 208 199 197 210 224 239 239 235 230 235 238 247 247 246 246
265 259 257 253 249 245 241 263 272 269 254 217 198 203 202 188 185 170 174 175 165 160 154 163 175 161 157 168 187 238 233 189 181 179 172 184 209 208 225 244 247 238 232 229 233 237 241 244 247
247 240 247 251 244 230 236 263 269 287 295 268 231 220 192 191 195 170 171 175 156 151 161 159 147 142 154 166 185 220 183 170 236 191 140 119 246 216 202 225 222 226 225 223 236 225 225 242 245
309 294 252 247 224 196 255 272 284 354 329 306 279 220 200 207 210 185 171 157 138 140 147 144 145 144 153 169 176 218 166 199 209 136 112 110 201 128 35 294 268 304 303 275 268 281 250 251 257
311 310 313 326 28 279 273 286 292 302 283 277 264 232 213 207 224 202 122 125 121 120 126 143 160 141 170 160 151 152 113 37 63 119 115 129 225 83 26 296 343 322 295 305 320 316 302 288 271
310 305 311 326 335 309 284 279 277 240 229 263 286 294 302 293 28 30 17 52 90 108 118 137 140 144 175 124 102 102 84 288 271 78 144 177 208 205 293 359 338 317 324 308 280 268 266 279 286
313 324 328 315 300 279 272 267 262 259 45 39 36 32 38 44 47 41 19 20 37 79 136 163 136 144 169 139 172 166 162 229 226 191 182 171 174 187 292 320 300 310 300 292 312 298 286 287 293
313 329 310 303 293 281 280 282 278 124 73 52 47 46 43 55 57 57 44 25 24 24 21 29 96 152 166 166 250 249 219 240 251 212 193 150 177 212 208 224 258 274 285 292 284 292 312 295 288
307 312 297 289 285 285 301 292 62 83 75 61 58 60 56 57 59 61 47 31 30 34 29 15 18 22 5 343 329 325 302 287 277 236 189 174 217 212 206 200 219 247 263 273 292 305 291 283 282
305 292 284 281 321 327 330 313 359 69 84 83 68 59 55 54 57 56 51 37 29 34 35 23 25 24 15 9 359 340 318 314 313 308 291 243 229 208 200 188 195 232 263 288 295 287 282 275 276
328 311 305 311 153 209 218 245 146 76 70 76 74 66 60 56 53 50 45 38 33 31 28 24 26 23 20 19 14 9 356 330 301 287 275 251 246 242 189 172 157 249 275 276 270 272 273 275 274
318 311 309 320 320 302 196 201 85 68 68 71 72 68 62 58 56 54 48 41 34 30 24 21 18 15 15 16 13 19 15 5 348 335 319 302 283 284 94 144 196 235 256 270 276 282 278 282 291
314 331 331 319 309 310 5 115 120 93 59 42 54 59 54 52 52 50 46 39 29 22 18 10 6 1 3 4 356 6 9 0 352 348 347 340 335 321 318 267 230 240 253 262 271 273 278 280 282
266 313 312 316 319 317 320 106 141 131 148 132 51 41 30 22 24 22 16 12 0 349 352 349 346 343 343 347 347 347 347 341 337 341 349 351 344 335 322 304 282 266 261 260 261 273 278 290 289
318 321 326 319 320 320 314 29 63 95 67 48 35 19 4 353 349 344 340 339 337 336 343 346 344 337 334 336 336 332 331 329 326 322 334 340 338 336 325 308 289 272 262 259 257 262 273 281 293
310 314 316 317 318 311 309 50 42 57 44 12 348 345 338 331 324 318 315 313 313 315 318 314 311 301 295 294 296 298 303 309 313 316 322 323 322 324 324 316 301 282 270 261 257 261 273 283 291